Time,TemperatureF,DewpointF,PressureIn,WindDirection,WindDirectionDegrees,WindSpeedMPH,WindSpeedGustMPH,Humidity,HourlyPrecipIn,Conditions,Clouds,dailyrainin,SoftwareType,DateUTC
2013-02-27 00:02:00,67.0,62.0,29.92,West,265,2.0,5.0,85,0.00,,,0.24,,2013-02-27 05:02:00,
2013-02-27 00:12:00,67.0,62.0,29.92,West,265,2.0,5.0,85,0.00,,,0.24,,2013-02-27 05:12:00,
2013-02-27 00:22:00,67.0,62.0,29.92,West,262,1.0,4.0,85,0.00,,,0.24,,2013-02-27 05:22:00,
2013-02-27 00:32:00,67.0,63.0,29.92,West,277,1.0,4.0,87,0.00,,,0.24,,2013-02-27 05:32:00,
2013-02-27 00:42:00,67.0,63.0,29.92,West,277,1.0,4.0,87,0.00,,,0.24,,2013-02-27 05:42:00,
2013-02-27 00:52:00,67.0,63.0,29.91,WSW,258,2.0,7.0,86,0.00,,,0.24,,2013-02-27 05:52:00,
2013-02-27 01:02:00,66.0,62.0,29.92,West,268,1.0,3.0,86,0.00,,,0.24,,2013-02-27 06:02:00,
2013-02-27 01:11:00,66.0,62.0,29.92,West,268,1.0,3.0,86,0.00,,,0.24,,2013-02-27 06:11:00,
2013-02-27 01:22:00,66.0,61.0,29.92,WSW,240,0.0,7.0,85,0.00,,,0.24,,2013-02-27 06:22:00,
2013-02-27 01:33:00,66.0,61.0,29.91,NW,308,0.0,2.0,84,0.00,,,0.24,,2013-02-27 06:33:00,
2013-02-27 01:42:00,66.0,61.0,29.91,NW,308,0.0,2.0,84,0.00,,,0.24,,2013-02-27 06:42:00,
2013-02-27 01:52:00,66.0,61.0,29.91,WNW,283,1.0,3.0,85,0.00,,,0.24,,2013-02-27 06:52:00,
2013-02-27 02:01:00,66.0,61.0,29.91,West,277,0.0,3.0,85,0.00,,,0.24,,2013-02-27 07:01:00,
2013-02-27 02:12:00,66.0,61.0,29.91,West,277,0.0,3.0,85,0.00,,,0.24,,2013-02-27 07:12:00,
2013-02-27 02:21:00,66.0,61.0,29.91,West,280,1.0,3.0,85,0.00,,,0.24,,2013-02-27 07:21:00,
2013-02-27 02:32:00,66.0,61.0,29.91,WSW,256,0.0,3.0,83,0.00,,,0.24,,2013-02-27 07:32:00,
2013-02-27 02:42:00,66.0,61.0,29.91,WSW,256,0.0,3.0,83,0.00,,,0.24,,2013-02-27 07:42:00,
2013-02-27 02:52:00,66.0,61.0,29.91,West,274,0.0,1.0,84,0.00,,,0.24,,2013-02-27 07:52:00,
2013-02-27 03:01:00,65.0,60.0,29.90,WSW,244,1.0,3.0,85,0.00,,,0.24,,2013-02-27 08:01:00,
2013-02-27 03:11:00,65.0,60.0,29.90,WSW,244,1.0,3.0,85,0.00,,,0.24,,2013-02-27 08:11:00,
2013-02-27 03:22:00,65.0,60.0,29.90,SW,232,0.0,1.0,85,0.00,,,0.24,,2013-02-27 08:22:00,
2013-02-27 03:32:00,65.0,60.0,29.91,WSW,257,0.0,1.0,85,0.00,,,0.24,,2013-02-27 08:32:00,
2013-02-27 03:42:00,65.0,60.0,29.91,WSW,257,0.0,1.0,85,0.00,,,0.24,,2013-02-27 08:42:00,
2013-02-27 03:53:00,65.0,60.0,29.90,West,278,0.0,1.0,84,0.00,,,0.24,,2013-02-27 08:53:00,
2013-02-27 04:02:00,65.0,59.0,29.90,WNW,300,0.0,2.0,82,0.00,,,0.24,,2013-02-27 09:02:00,
2013-02-27 04:12:00,65.0,59.0,29.90,WNW,300,0.0,2.0,82,0.00,,,0.24,,2013-02-27 09:12:00,
2013-02-27 04:22:00,65.0,59.0,29.91,West,265,0.0,1.0,82,0.00,,,0.24,,2013-02-27 09:22:00,
2013-02-27 04:32:00,64.0,59.0,29.91,West,269,0.0,0.0,83,0.00,,,0.24,,2013-02-27 09:32:00,
2013-02-27 04:42:00,64.0,59.0,29.91,West,269,0.0,0.0,83,0.00,,,0.24,,2013-02-27 09:42:00,
2013-02-27 04:52:00,64.0,60.0,29.91,West,269,0.0,0.0,86,0.00,,,0.24,,2013-02-27 09:52:00,
2013-02-27 05:01:00,63.0,59.0,29.92,West,277,0.0,1.0,88,0.00,,,0.24,,2013-02-27 10:01:00,
2013-02-27 05:12:00,63.0,59.0,29.92,West,277,0.0,1.0,88,0.00,,,0.24,,2013-02-27 10:12:00,
2013-02-27 05:22:00,63.0,59.0,29.92,WNW,287,0.0,1.0,87,0.00,,,0.24,,2013-02-27 10:22:00,
2013-02-27 05:32:00,64.0,60.0,29.92,NNW,340,0.0,1.0,87,0.00,,,0.24,,2013-02-27 10:32:00,
2013-02-27 05:42:00,64.0,60.0,29.92,NNW,340,0.0,1.0,87,0.00,,,0.24,,2013-02-27 10:42:00,
2013-02-27 05:53:00,64.0,60.0,29.93,North,352,0.0,1.0,87,0.00,,,0.24,,2013-02-27 10:53:00,
2013-02-27 06:02:00,63.0,59.0,29.93,North,352,0.0,0.0,88,0.00,,,0.24,,2013-02-27 11:02:00,
2013-02-27 06:12:00,63.0,59.0,29.93,North,352,0.0,0.0,88,0.00,,,0.24,,2013-02-27 11:12:00,
2013-02-27 06:22:00,62.0,58.0,29.93,North,352,0.0,0.0,88,0.00,,,0.24,,2013-02-27 11:22:00,
2013-02-27 06:32:00,62.0,59.0,29.93,North,352,0.0,0.0,89,0.00,,,0.24,,2013-02-27 11:32:00,
2013-02-27 06:42:00,62.0,59.0,29.93,North,352,0.0,0.0,89,0.00,,,0.24,,2013-02-27 11:42:00,
2013-02-27 06:52:00,61.0,58.0,29.94,North,352,0.0,0.0,90,0.00,,,0.24,,2013-02-27 11:52:00,
2013-02-27 07:02:00,60.0,57.0,29.94,North,352,0.0,0.0,91,0.00,,,0.24,,2013-02-27 12:02:00,
2013-02-27 07:13:00,60.0,57.0,29.94,North,352,0.0,0.0,91,0.00,,,0.24,,2013-02-27 12:13:00,
2013-02-27 07:22:00,60.0,57.0,29.94,North,352,0.0,0.0,91,0.00,,,0.24,,2013-02-27 12:22:00,
2013-02-27 07:33:00,59.0,56.0,29.94,North,351,0.0,0.0,91,0.00,,,0.24,,2013-02-27 12:33:00,
2013-02-27 07:42:00,59.0,56.0,29.94,North,351,0.0,0.0,91,0.00,,,0.24,,2013-02-27 12:42:00,
2013-02-27 07:53:00,59.0,57.0,29.95,North,352,0.0,0.0,92,0.00,,,0.24,,2013-02-27 12:53:00,
2013-02-27 08:02:00,60.0,58.0,29.96,North,352,0.0,0.0,94,0.00,,,0.24,,2013-02-27 13:02:00,
2013-02-27 08:12:00,60.0,58.0,29.96,North,352,0.0,0.0,94,0.00,,,0.24,,2013-02-27 13:12:00,
2013-02-27 08:22:00,61.0,59.0,29.96,North,8,0.0,0.0,94,0.00,,,0.24,,2013-02-27 13:22:00,
2013-02-27 08:32:00,63.0,60.0,29.97,NE,37,0.0,2.0,91,0.00,,,0.24,,2013-02-27 13:32:00,
2013-02-27 08:42:00,63.0,60.0,29.97,NE,37,0.0,2.0,91,0.00,,,0.24,,2013-02-27 13:42:00,
2013-02-27 08:52:00,65.0,60.0,29.97,NNE,20,1.0,2.0,85,0.00,,,0.24,,2013-02-27 13:52:00,
2013-02-27 09:02:00,65.0,60.0,29.98,North,5,0.0,2.0,83,0.00,,,0.24,,2013-02-27 14:02:00,
2013-02-27 09:12:00,65.0,60.0,29.98,North,5,0.0,2.0,83,0.00,,,0.24,,2013-02-27 14:12:00,
2013-02-27 09:22:00,65.0,59.0,30.00,North,3,1.0,9.0,82,0.00,,,0.24,,2013-02-27 14:22:00,
2013-02-27 09:32:00,66.0,60.0,30.00,NNE,13,1.0,4.0,81,0.00,,,0.24,,2013-02-27 14:32:00,
2013-02-27 09:42:00,66.0,60.0,30.00,NNE,13,1.0,4.0,81,0.00,,,0.24,,2013-02-27 14:42:00,
2013-02-27 09:53:00,66.0,60.0,30.00,NNW,328,0.0,3.0,80,0.00,,,0.24,,2013-02-27 14:53:00,
2013-02-27 10:02:00,66.0,59.0,30.00,North,360,0.0,4.0,78,0.00,,,0.24,,2013-02-27 15:02:00,
2013-02-27 10:12:00,66.0,59.0,30.00,North,360,0.0,4.0,78,0.00,,,0.24,,2013-02-27 15:12:00,
2013-02-27 10:22:00,66.0,59.0,30.00,WNW,296,2.0,4.0,78,0.00,,,0.23,,2013-02-27 15:22:00,
2013-02-27 10:32:00,67.0,59.0,30.00,North,6,2.0,4.0,76,0.00,,,0.23,,2013-02-27 15:32:00,
2013-02-27 10:42:00,67.0,59.0,30.00,North,6,2.0,4.0,76,0.00,,,0.23,,2013-02-27 15:42:00,
2013-02-27 10:52:00,67.0,58.0,30.01,NE,39,3.0,5.0,74,0.00,,,0.23,,2013-02-27 15:52:00,
2013-02-27 11:02:00,67.0,59.0,30.01,WNW,302,1.0,4.0,75,0.00,,,0.23,,2013-02-27 16:02:00,
2013-02-27 11:12:00,67.0,59.0,30.01,WNW,302,1.0,4.0,75,0.00,,,0.23,,2013-02-27 16:12:00,
2013-02-27 11:22:00,67.0,58.0,30.01,North,354,1.0,4.0,73,0.00,,,0.00,,2013-02-27 16:22:00,
2013-02-27 11:32:00,68.0,59.0,30.01,NNE,15,2.0,5.0,72,0.00,,,0.00,,2013-02-27 16:32:00,
2013-02-27 11:42:00,68.0,59.0,30.01,NNE,15,2.0,5.0,72,0.00,,,0.00,,2013-02-27 16:42:00,
2013-02-27 11:52:00,69.0,59.0,30.00,NNW,344,0.0,3.0,70,0.00,,,0.00,,2013-02-27 16:52:00,
2013-02-27 12:02:00,69.0,58.0,30.00,NE,45,2.0,4.0,68,0.00,,,0.00,,2013-02-27 17:02:00,
2013-02-27 12:11:00,69.0,58.0,30.00,NE,45,2.0,4.0,68,0.00,,,0.00,,2013-02-27 17:11:00,
2013-02-27 12:21:00,69.0,58.0,30.00,WNW,284,1.0,5.0,69,0.00,,,0.00,,2013-02-27 17:21:00,
2013-02-27 12:32:00,70.0,59.0,30.00,NNE,32,1.0,3.0,68,0.00,,,0.00,,2013-02-27 17:32:00,
2013-02-27 12:42:00,70.0,59.0,30.00,NNE,32,1.0,3.0,68,0.00,,,0.00,,2013-02-27 17:42:00,
2013-02-27 12:52:00,71.0,59.0,29.99,WNW,284,1.0,3.0,67,0.00,,,0.00,,2013-02-27 17:52:00,
2013-02-27 13:02:00,71.0,59.0,29.99,North,356,1.0,4.0,65,0.00,,,0.00,,2013-02-27 18:02:00,
2013-02-27 13:11:00,71.0,59.0,29.99,North,356,1.0,4.0,65,0.00,,,0.00,,2013-02-27 18:11:00,
2013-02-27 13:22:00,71.0,58.0,29.99,West,280,2.0,4.0,63,0.00,,,0.00,,2013-02-27 18:22:00,
2013-02-27 13:32:00,71.0,59.0,29.98,WNW,302,1.0,5.0,67,0.00,,,0.00,,2013-02-27 18:32:00,
2013-02-27 13:42:00,71.0,59.0,29.98,WNW,302,1.0,5.0,67,0.00,,,0.00,,2013-02-27 18:42:00,
2013-02-27 13:52:00,71.0,58.0,29.97,West,278,2.0,2.0,64,0.00,,,0.00,,2013-02-27 18:52:00,
2013-02-27 14:01:00,70.0,57.0,29.96,WNW,283,0.0,4.0,64,0.00,,,0.00,,2013-02-27 19:01:00,
2013-02-27 14:12:00,70.0,57.0,29.96,WNW,283,0.0,4.0,64,0.00,,,0.00,,2013-02-27 19:12:00,
2013-02-27 14:22:00,71.0,58.0,29.96,SW,232,0.0,3.0,64,0.00,,,0.00,,2013-02-27 19:22:00,
2013-02-27 14:32:00,71.0,57.0,29.95,SE,145,1.0,3.0,62,0.00,,,0.00,,2013-02-27 19:32:00,
2013-02-27 14:42:00,71.0,57.0,29.95,SE,145,1.0,3.0,62,0.00,,,0.00,,2013-02-27 19:42:00,
2013-02-27 14:52:00,71.0,57.0,29.95,SW,226,1.0,2.0,62,0.00,,,0.00,,2013-02-27 19:52:00,
2013-02-27 15:02:00,70.0,57.0,29.95,NW,308,1.0,4.0,64,0.00,,,0.00,,2013-02-27 20:02:00,
2013-02-27 15:12:00,70.0,57.0,29.95,NW,308,1.0,4.0,64,0.00,,,0.00,,2013-02-27 20:12:00,
2013-02-27 15:22:00,70.0,57.0,29.95,WNW,291,1.0,3.0,64,0.00,,,0.00,,2013-02-27 20:22:00,
2013-02-27 15:32:00,70.0,57.0,29.95,NW,305,2.0,4.0,63,0.00,,,0.00,,2013-02-27 20:32:00,
2013-02-27 15:42:00,70.0,57.0,29.95,NW,305,2.0,4.0,63,0.00,,,0.00,,2013-02-27 20:42:00,
2013-02-27 15:52:00,70.0,57.0,29.95,WNW,287,1.0,5.0,64,0.00,,,0.00,,2013-02-27 20:52:00,
2013-02-27 16:02:00,69.0,57.0,29.96,NW,308,0.0,3.0,65,0.00,,,0.00,,2013-02-27 21:02:00,
2013-02-27 16:11:00,69.0,57.0,29.96,NW,308,0.0,3.0,65,0.00,,,0.00,,2013-02-27 21:11:00,
2013-02-27 16:22:00,69.0,57.0,29.96,NW,308,1.0,5.0,66,0.00,,,0.00,,2013-02-27 21:22:00,
2013-02-27 16:32:00,68.0,57.0,29.96,WNW,295,1.0,3.0,68,0.00,,,0.00,,2013-02-27 21:32:00,
2013-02-27 16:42:00,68.0,57.0,29.96,WNW,295,1.0,3.0,68,0.00,,,0.00,,2013-02-27 21:42:00,
2013-02-27 16:52:00,67.0,56.0,29.97,NW,325,1.0,4.0,67,0.00,,,0.00,,2013-02-27 21:52:00,
2013-02-27 17:02:00,66.0,56.0,29.97,NW,319,0.0,2.0,69,0.00,,,0.00,,2013-02-27 22:02:00,
2013-02-27 17:11:00,66.0,56.0,29.97,NW,319,0.0,2.0,69,0.00,,,0.00,,2013-02-27 22:11:00,
2013-02-27 17:22:00,66.0,55.0,29.97,NE,37,1.0,3.0,68,0.00,,,0.00,,2013-02-27 22:22:00,
2013-02-27 17:32:00,65.0,55.0,29.96,NNW,345,0.0,4.0,71,0.00,,,0.00,,2013-02-27 22:32:00,
2013-02-27 17:42:00,65.0,55.0,29.96,NNW,345,0.0,4.0,71,0.00,,,0.00,,2013-02-27 22:42:00,
2013-02-27 17:52:00,63.0,54.0,29.97,North,5,0.0,3.0,73,0.00,,,0.00,,2013-02-27 22:52:00,
2013-02-27 18:01:00,63.0,55.0,29.96,North,355,0.0,1.0,74,0.00,,,0.00,,2013-02-27 23:01:00,
2013-02-27 18:11:00,63.0,55.0,29.96,North,355,0.0,1.0,74,0.00,,,0.00,,2013-02-27 23:11:00,
2013-02-27 18:22:00,62.0,54.0,29.97,North,4,0.0,1.0,75,0.00,,,0.00,,2013-02-27 23:22:00,
2013-02-27 18:32:00,62.0,54.0,29.96,North,1,0.0,1.0,76,0.00,,,0.00,,2013-02-27 23:32:00,
2013-02-27 18:42:00,62.0,54.0,29.96,North,1,0.0,1.0,76,0.00,,,0.00,,2013-02-27 23:42:00,
2013-02-27 18:53:00,61.0,54.0,29.97,NNW,335,0.0,2.0,78,0.00,,,0.00,,2013-02-27 23:53:00,
2013-02-27 19:02:00,61.0,54.0,29.98,North,6,0.0,2.0,79,0.00,,,0.00,,2013-02-28 00:02:00,
2013-02-27 19:12:00,61.0,54.0,29.98,North,6,0.0,2.0,79,0.00,,,0.00,,2013-02-28 00:12:00,
2013-02-27 19:22:00,60.0,54.0,29.98,NNW,333,0.0,2.0,80,0.00,,,0.00,,2013-02-28 00:22:00,
2013-02-27 19:32:00,60.0,54.0,29.99,North,11,0.0,1.0,81,0.00,,,0.00,,2013-02-28 00:32:00,
2013-02-27 19:42:00,60.0,54.0,29.99,North,11,0.0,1.0,81,0.00,,,0.00,,2013-02-28 00:42:00,
2013-02-27 19:52:00,59.0,54.0,29.98,North,355,0.0,1.0,82,0.00,,,0.00,,2013-02-28 00:52:00,
2013-02-27 20:01:00,59.0,54.0,30.00,North,355,0.0,0.0,83,0.00,,,0.00,,2013-02-28 01:01:00,
2013-02-27 20:11:00,59.0,54.0,30.00,North,355,0.0,0.0,83,0.00,,,0.00,,2013-02-28 01:11:00,
2013-02-27 20:22:00,59.0,54.0,29.99,North,8,0.0,0.0,84,0.00,,,0.00,,2013-02-28 01:22:00,
2013-02-27 20:32:00,59.0,54.0,29.99,North,6,0.0,1.0,84,0.00,,,0.00,,2013-02-28 01:32:00,
2013-02-27 20:42:00,59.0,54.0,29.99,North,6,0.0,1.0,84,0.00,,,0.00,,2013-02-28 01:42:00,
2013-02-27 20:52:00,58.0,53.0,30.00,WNW,287,0.0,0.0,84,0.00,,,0.00,,2013-02-28 01:52:00,
2013-02-27 21:01:00,58.0,54.0,29.99,North,352,0.0,1.0,85,0.00,,,0.00,,2013-02-28 02:01:00,
2013-02-27 21:11:00,58.0,54.0,29.99,North,352,0.0,1.0,85,0.00,,,0.00,,2013-02-28 02:11:00,
2013-02-27 21:22:00,58.0,54.0,30.00,North,352,0.0,0.0,85,0.00,,,0.00,,2013-02-28 02:22:00,
2013-02-27 21:32:00,58.0,54.0,30.00,North,352,0.0,0.0,86,0.00,,,0.00,,2013-02-28 02:32:00,
2013-02-27 21:42:00,58.0,54.0,30.00,North,352,0.0,0.0,86,0.00,,,0.00,,2013-02-28 02:42:00,
2013-02-27 21:52:00,58.0,54.0,30.00,North,352,0.0,0.0,86,0.00,,,0.00,,2013-02-28 02:52:00,
2013-02-27 22:02:00,57.0,53.0,30.00,North,352,0.0,0.0,87,0.00,,,0.00,,2013-02-28 03:02:00,
2013-02-27 22:11:00,57.0,53.0,30.00,North,352,0.0,0.0,87,0.00,,,0.00,,2013-02-28 03:11:00,
2013-02-27 22:21:00,57.0,53.0,30.00,North,352,0.0,0.0,88,0.00,,,0.00,,2013-02-28 03:21:00,
2013-02-27 22:32:00,58.0,54.0,30.01,North,352,0.0,0.0,88,0.00,,,0.00,,2013-02-28 03:32:00,
2013-02-27 22:42:00,58.0,54.0,30.01,North,352,0.0,0.0,88,0.00,,,0.00,,2013-02-28 03:42:00,
2013-02-27 22:52:00,58.0,54.0,30.01,NW,316,0.0,0.0,85,0.00,,,0.00,,2013-02-28 03:52:00,
2013-02-27 23:02:00,58.0,54.0,30.01,WNW,297,0.0,1.0,86,0.00,,,0.00,,2013-02-28 04:02:00,
2013-02-27 23:11:00,58.0,54.0,30.01,WNW,297,0.0,1.0,86,0.00,,,0.00,,2013-02-28 04:11:00,
2013-02-27 23:22:00,58.0,54.0,30.01,West,278,0.0,0.0,86,0.00,,,0.00,,2013-02-28 04:22:00,
2013-02-27 23:32:00,58.0,54.0,30.00,West,278,0.0,1.0,86,0.00,,,0.00,,2013-02-28 04:32:00,
2013-02-27 23:42:00,58.0,54.0,30.00,West,278,0.0,1.0,86,0.00,,,0.00,,2013-02-28 04:42:00,
2013-02-27 23:52:00,59.0,55.0,30.00,West,278,0.0,0.0,86,0.00,,,0.00,,2013-02-28 04:52:00,